User: anonymous   Login
Location: ??
(35.4032°N, 139.3073°E)
Time: 13:12:00
(UTC+00:00)
Language:

Cosmos 1933 Rocket - Orbit

View from above orbital plane
View from above orbital plane
View from above satellite
View from above satellite

Ground track
Ground track

The orbit data is extracted from the following two-line orbital elements,

1 18959U 88020B   24172.12025642  .00000494  00000-0  55686-4 0  9999
2 18959  82.5374  37.8508 0015809 336.7721  23.2778 14.84548474960133
Epoch (UTC): 20 June 2024 02:53:10
Eccentricity: 0.0015809
inclination: 82.5374°
perigee height: 604 km
apogee height: 626 km
right ascension of ascending node: 37.8508°
argument of perigee: 336.7721°
revolutions per day: 14.84548474
mean anomaly at epoch: 23.2778°
orbit number at epoch: 96013

The dashed part of the orbit path shows where the satellite is in the earth's shadow,  

DLR